Weather History for ROAH - November, 2012

Change the Weather History Date:

Wednesday, November 21, 2012

  Actual Average Record
Temperature  
Mean Temperature 70 °F -  
Max Temperature 75 °F 71 °F 80 °F (2003)
Min Temperature 64 °F 63 °F 60 °F (2008)
Cooling Degree Days 4    
Growing Degree Days 20 (Base 50)    
Moisture  
Dew Point 56 °F    
Average Humidity 60    
Maximum Humidity 69    
Minimum Humidity 50    
Precipitation  
Precipitation 0.00 in - - ()
Sea Level Pressure  
Sea Level Pressure 30.01 in    
Wind  
Wind Speed 6 mph ()    
Max Wind Speed 17 mph    
Max Gust Speed -    
Visibility 6.2 miles    
Events Rain    
Averages and records for this station are not official NWS values.
T = Trace of Precipitation, MM = Missing Value Source: Averaged Metar Reports

Daily Weather History Graph

Daily Weather History Graph

Search for Another Location

Airport or City:

Trip Planner

Search our weather history database for the weather conditions in past years. The results will help you decide how hot, cold, wet, or windy it might be!

Date:

Astronomy

Nov. 21, 2012 Rise Set
Actual Time 6:52 AM JST 5:38 PM JST
Civil Twilight 6:27 AM JST 6:02 PM JST
Nautical Twilight 5:59 AM JST 6:30 PM JST
Astronomical Twilight 5:31 AM JST 6:58 PM JST
Moon 1:00 PM JST (11/21) 12:12 AM JST (11/21)
Length of Visible Light 11h 34m
Length of Day
10h 45m
First Quarter, 55% of the Moon is Illuminated
Nov 21
First Quarter
Nov 28
Full
Dec 7
Last Quarter
Dec 13
New
Dec 20
First Quarter

Hourly Weather History & Observations

Time (JST) Temp. Dew Point Humidity Pressure Visibility Wind Dir Wind Speed Gust Speed Precip Events Conditions
12:00 AM 68.0 °F 53.6 °F 60% 30.09 in 6.2 mi East 3.5 mph - N/A   Partly Cloudy
12:30 AM 66.2 °F 53.6 °F 64% 30.06 in 6.2 mi ENE 2.3 mph - N/A   Partly Cloudy
1:00 AM 64.4 °F 51.8 °F 64% 30.09 in 6.2 mi Calm Calm - N/A   Partly Cloudy
1:30 AM 64.4 °F 53.6 °F 68% 30.09 in - Calm Calm - N/A   Clear
2:00 AM 66.2 °F 51.8 °F 60% 30.09 in - NNE 2.3 mph - N/A   Clear
2:30 AM 66.2 °F 53.6 °F 64% 30.06 in - ENE 4.6 mph - N/A   Clear
3:00 AM 68.0 °F 53.6 °F 60% 30.06 in - East 4.6 mph - N/A   Clear
3:30 AM 66.2 °F 53.6 °F 64% 30.06 in - Variable 2.3 mph - N/A   Clear
4:00 AM 66.2 °F 53.6 °F 64% 30.06 in - East 1.2 mph - N/A   Clear
4:30 AM 66.2 °F 51.8 °F 60% 30.06 in - ENE 2.3 mph - N/A   Clear
5:00 AM 64.4 °F 51.8 °F 64% 30.06 in - Variable 1.2 mph - N/A   Clear
5:30 AM 64.4 °F 51.8 °F 64% 30.06 in - NE 2.3 mph - N/A   Clear
6:00 AM 64.4 °F 51.8 °F 64% 30.06 in - ENE 2.3 mph - N/A   Clear
6:30 AM 66.2 °F 51.8 °F 60% 30.06 in - East 2.3 mph - N/A   Clear
7:00 AM 64.4 °F 53.6 °F 68% 30.06 in - East 1.2 mph - N/A   Clear
7:30 AM 64.4 °F 53.6 °F 68% 30.06 in - Variable 1.2 mph - N/A   Clear
8:00 AM 68.0 °F 55.4 °F 64% 30.06 in - Variable 2.3 mph - N/A   Clear
8:30 AM 68.0 °F 57.2 °F 68% 30.06 in - East 4.6 mph - N/A   Clear
9:00 AM 69.8 °F 57.2 °F 64% 30.06 in - East 5.8 mph - N/A   Clear
9:30 AM 71.6 °F 57.2 °F 60% 30.06 in - East 8.1 mph - N/A   Clear
10:00 AM 73.4 °F 57.2 °F 57% 30.06 in 6.2 mi SE 10.4 mph - N/A   Partly Cloudy
10:30 AM 73.4 °F 55.4 °F 53% 30.06 in 6.2 mi SE 11.5 mph - N/A   Partly Cloudy
11:00 AM 73.4 °F 57.2 °F 57% 30.04 in 6.2 mi SSE 10.4 mph - N/A   Partly Cloudy
11:30 AM 75.2 °F 55.4 °F 50% 30.04 in 6.2 mi SE 9.2 mph - N/A   Partly Cloudy
12:00 PM 75.2 °F 55.4 °F 50% 30.04 in 6.2 mi South 10.4 mph - N/A   Partly Cloudy
12:30 PM 75.2 °F 55.4 °F 50% 30.01 in 6.2 mi South 10.4 mph - N/A   Partly Cloudy
1:00 PM 75.2 °F 55.4 °F 50% 30.01 in 6.2 mi South 9.2 mph - N/A   Partly Cloudy
1:30 PM 75.2 °F 55.4 °F 50% 29.98 in 6.2 mi SSE 11.5 mph - N/A   Partly Cloudy
2:00 PM 75.2 °F 55.4 °F 50% 29.98 in 6.2 mi SSE 10.4 mph - N/A   Partly Cloudy
2:30 PM 75.2 °F 57.2 °F 53% 29.95 in 6.2 mi South 11.5 mph - N/A   Partly Cloudy
3:00 PM 75.2 °F 55.4 °F 50% 29.95 in 6.2 mi SSE 11.5 mph - N/A   Partly Cloudy
3:30 PM 75.2 °F 55.4 °F 50% 29.95 in 6.2 mi SSE 11.5 mph - N/A   Partly Cloudy
4:00 PM 73.4 °F 55.4 °F 53% 29.95 in 6.2 mi SSE 13.8 mph - N/A   Partly Cloudy
4:30 PM 73.4 °F 55.4 °F 53% 29.95 in 6.2 mi SSE 11.5 mph - N/A   Partly Cloudy
5:00 PM 73.4 °F 55.4 °F 53% 29.95 in 6.2 mi SSE 13.8 mph - N/A   Partly Cloudy
5:30 PM 73.4 °F 55.4 °F 53% 29.95 in 6.2 mi SSE 13.8 mph - N/A   Scattered Clouds
6:00 PM 71.6 °F 57.2 °F 60% 29.95 in 6.2 mi SSE 9.2 mph - N/A   Mostly Cloudy
6:30 PM 71.6 °F 57.2 °F 60% 29.95 in 6.2 mi South 13.8 mph - N/A   Scattered Clouds
7:00 PM 71.6 °F 59.0 °F 64% 29.95 in 6.2 mi SSE 11.5 mph - N/A   Mostly Cloudy
7:30 PM 71.6 °F 59.0 °F 64% 29.95 in 6.2 mi SSE 12.7 mph - N/A   Mostly Cloudy
8:00 PM 73.4 °F 59.0 °F 61% 29.95 in 6.2 mi SSE 12.7 mph - N/A   Mostly Cloudy
8:30 PM 73.4 °F 60.8 °F 65% 29.95 in 6.2 mi South 13.8 mph - N/A   Mostly Cloudy
9:00 PM 73.4 °F 60.8 °F 65% 29.95 in 6.2 mi SSE 16.1 mph - N/A   Mostly Cloudy
9:30 PM 73.4 °F 60.8 °F 65% 29.95 in 6.2 mi SSE 15.0 mph - N/A   Mostly Cloudy
10:00 PM 73.4 °F 60.8 °F 65% 29.95 in 6.2 mi South 16.1 mph - N/A Rain Light Rain
10:30 PM 73.4 °F 60.8 °F 65% 29.92 in 6.2 mi SSE 15.0 mph - N/A Rain Light Rain
11:00 PM 73.4 °F 62.6 °F 69% 29.92 in 6.2 mi South 17.3 mph - N/A   Mostly Cloudy
11:30 PM 73.4 °F 62.6 °F 69% 29.92 in 6.2 mi South 16.1 mph - N/A Rain Light Rain